Location: Newark
(47.5833°N, 8.1500°E)
Time: 14:42:10
(UTC+00:00)

Transit 2A Rocket - Visible Passes

Search period start: 31 October 2020 00:00
Search period end: 10 November 2020 00:00
Orbit: 586 x 916 km, 66.7° (Epoch: 30 October)

Date Brightness Start Highest point End Pass type
(mag) Time Alt. Az. Time Alt. Az. Time Alt. Az.
31 Oct 5.8 17:23:03 10° NW 17:28:07 51° WSW 17:32:41 10° SSE visible
01 Nov 5.0 16:40:20 10° NW 16:45:37 85° WSW 16:50:22 10° SSE visible
01 Nov 7.9 18:25:16 10° W 18:27:11 12° WSW 18:29:03 10° SW visible
02 Nov 7.5 17:41:15 10° WNW 17:45:02 21° WSW 17:48:34 10° SSW visible
03 Nov 6.6 16:58:05 10° NW 17:02:46 36° WSW 17:07:02 10° S visible
05 Nov 8.0 17:16:50 10° WNW 17:19:33 15° WSW 17:22:09 10° SW visible
06 Nov 7.5 16:33:15 10° NW 16:37:22 25° WSW 16:41:10 10° SSW visible
07 Nov 8.2 05:27:53 10° SSE 05:32:22 22° ESE 05:36:44 10° ENE visible
08 Nov 8.6 04:47:28 10° SE 04:50:09 13° ESE 04:52:48 10° ENE visible
09 Nov 6.7 05:43:39 10° S 05:49:24 45° ESE 05:54:56 10° NE visible
